Temp_Advection
nan nan nan nan nan nan nan nan nan nan nan nan nan nan nan nan nan nan nan nan nan nan nan nan nan nan nan nan nan nan nan nan nan nan nan nan nan nan nan nan nan nan nan nan nan
nan -0 -0 -0 -0 -0 -0 -0 0 0 -0 -0 -0 0 -0 -0 -0 -1 -0 -0 -0 -0 0 -0 0 0 0 -0 0 -0 -0 -0 -0 -0 0 -0 -0 -0 0 -0 -0 -0 0 0 nan
nan -0 -0 -0 -0 -0 -0 -0 -0 0 0 -0 -0 -0 -0 -0 -1 -0 -0 -0 -0 -0 0 0 0 0 0 0 0 -0 -0 -0 -0 -0 -0 0 -0 0 -0 -0 -0 -0 0 0 nan
nan 0 -0 -0 -0 -0 -0 -0 0 -0 0 0 -0 -0 -0 -0 -0 0 0 -0 -0 -0 -0 -0 -0 0 0 0 0 -0 -0 -0 -0 0 0 0 0 -0 -0 -0 0 0 0 0 nan
nan 0 0 -0 -0 -0 -0 -0 0 0 0 0 -0 -0 -0 -0 -1 -0 0 0 0 -0 -0 0 0 0 -0 -0 0 0 -0 -0 -0 0 -0 0 0 0 -0 0 0 0 0 0 nan
nan 0 0 0 -0 -0 -0 0 0 0 0 0 -0 -0 0 -0 -0 -0 -0 0 0 0 0 0 -0 0 -0 -0 0 -0 0 -0 -0 0 0 0 0 -0 -0 0 0 0 0 0 nan
nan 0 -0 -0 0 -0 -0 0 0 0 0 -0 0 -0 -1 -2 0 -0 0 0 0 0 0 0 -0 -0 0 0 -0 0 0 -0 -0 0 0 0 0 -0 -1 0 0 0 0 0 nan
nan -0 -0 -0 -0 -0 -0 0 0 0 0 -0 0 -0 -1 -1 0 -0 -0 -0 0 0 0 0 -0 0 0 0 -0 -0 -0 -0 -0 0 0 -0 0 -0 -0 0 0 0 0 0 nan
nan -0 -0 -0 -0 -0 0 0 0 0 0 0 0 -0 -1 -0 -0 -0 -0 0 0 0 0 0 0 0 0 -0 -0 -0 -0 -0 -0 -0 -0 0 -0 -0 0 1 0 0 0 0 nan
nan -0 -0 -0 0 0 0 1 0 0 0 -0 -0 -0 -1 -0 -0 -0 -0 0 0 0 0 0 0 -0 -0 -0 -0 -0 -0 -0 -0 0 -0 0 0 -1 0 1 1 1 0 0 nan
nan -0 -0 0 0 0 1 0 -0 -0 -0 -1 -0 -0 0 -0 0 0 0 0 0 0 0 0 -0 -0 -0 -0 -0 0 0 -0 -0 -0 0 0 0 -1 0 1 0 0 0 0 nan
nan -0 0 0 1 1 0 -1 -0 -0 -0 -1 -0 -0 -0 0 -0 -0 0 0 0 0 0 -0 -0 -1 0 -0 -0 -0 0 0 -0 -0 0 0 0 -0 0 -0 -0 0 -0 0 nan
nan 0 0 2 2 1 -1 -1 0 -0 0 0 0 -0 -0 0 0 -0 0 0 -0 0 0 0 -0 -0 0 -0 -0 0 0 -0 -0 -0 0 0 0 -0 -0 0 1 1 0 0 nan
nan 0 1 1 -0 -1 -3 0 0 0 -0 -0 0 -0 0 0 -0 -0 -0 0 0 -0 -0 -0 -0 0 0 -0 -0 0 -0 -0 0 -0 0 -0 0 -0 -0 0 0 2 1 0 nan
nan -0 0 0 -1 -4 -2 -0 0 0 -0 -0 -0 -0 0 0 -0 0 0 0 -0 -0 -0 -0 -0 0 -0 -0 -0 -0 -0 0 0 -0 -0 0 0 0 0 0 0 1 0 0 nan
nan -0 1 0 -2 -2 1 1 0 -0 -1 -0 0 0 0 0 0 0 1 1 0 0 0 -0 -0 -0 -0 0 0 -0 -0 -1 -0 -0 -0 -0 0 0 -0 0 -0 -0 0 -0 nan
nan 1 1 -2 -1 1 0 1 -0 0 -0 0 0 0 0 0 0 0 0 0 0 0 0 0 0 0 0 -0 -0 -0 -0 -0 0 0 -0 -0 0 -1 0 0 -0 -1 -1 -1 nan
nan 1 1 0 0 1 1 -0 -0 -0 -0 0 -0 -0 0 0 0 0 0 0 -0 -0 -0 0 0 0 0 -0 0 0 -0 -0 -0 -0 -0 -0 -0 -0 0 -0 -0 -1 -1 -0 nan
nan 1 1 1 1 1 1 -0 -0 -0 -0 -0 -0 0 0 0 0 0 0 -0 -0 0 -0 -0 -0 0 0 0 -0 -0 -0 -0 -0 -0 0 -0 -0 -0 0 0 1 1 1 0 nan
nan 0 -0 0 2 2 0 -0 0 -0 -0 -0 -0 0 0 0 0 0 0 -0 -0 -0 -0 -0 -0 0 0 0 -0 0 -0 -0 -0 0 0 -0 -0 -0 -0 0 -0 0 -1 -1 nan
nan 0 -0 1 1 0 0 0 -0 -0 -0 -0 -0 -0 -0 0 0 0 -0 -0 -0 -0 1 0 0 -0 0 0 0 0 0 0 -0 0 0 -0 -0 -0 0 0 -0 -1 -2 -1 nan
nan 0 0 1 -0 0 -0 0 -0 0 0 -0 -0 -0 -0 -0 -0 -0 -0 -0 -0 0 0 0 0 0 -0 0 0 -0 0 -0 0 0 0 0 -0 -0 0 -0 -1 -1 -1 -1 nan
nan 0 1 1 -0 0 -0 -0 0 -0 0 0 0 -0 -0 -0 -0 -0 -0 -0 0 0 -0 -0 0 -0 0 0 0 0 0 -0 -0 0 -0 0 -0 0 0 -0 -0 -0 -1 0 nan
nan -0 -0 -0 -1 -0 -0 -0 -0 0 -0 -0 0 0 -0 -0 0 -0 0 0 0 0 -0 -0 -0 -0 -0 -0 -0 -0 -0 0 -0 -0 -0 -0 -1 -0 0 -0 -0 -0 -0 1 nan
nan -0 -0 -1 -0 0 -0 0 0 0 0 0 -0 0 0 0 -0 -0 0 0 -0 0 -0 0 -0 0 -0 0 -0 -0 -0 -0 -0 -0 0 -0 0 -0 0 -1 -1 -0 1 1 nan
nan -0 -0 -0 -1 0 0 0 -0 -0 -0 0 0 0 0 0 -0 -0 -0 -0 -0 0 0 -0 0 0 -0 0 0 0 0 -0 -0 0 0 0 -0 -0 -1 0 0 -0 0 1 nan
nan nan nan nan nan nan nan nan nan nan nan nan nan nan nan nan nan nan nan nan nan nan nan nan nan nan nan nan nan nan nan nan nan nan nan nan nan nan nan nan nan nan nan nan nan
Wind_Speed
18 17 15 16 14 11 11 10 9 9 8 7 6 6 7 8 8 9 9 5 4 3 5 7 8 6 3 3 2 1 4 1 2 1 1 4 2 3 3 2 5 4 3 2 14
19 19 18 17 16 15 13 11 10 10 9 6 6 6 7 9 10 13 8 9 5 4 7 6 4 2 2 2 1 3 3 4 2 1 2 2 2 1 1 3 4 8 9 9 9
20 21 20 19 18 16 15 13 12 10 9 7 6 7 7 7 9 8 12 10 7 7 7 3 3 4 4 5 4 3 4 3 3 2 3 1 3 1 2 1 5 6 7 5 5
22 22 20 20 18 16 16 15 13 12 8 7 6 8 8 6 4 0 11 13 9 9 9 6 0 3 1 3 3 2 6 3 3 4 3 2 2 3 4 5 6 5 6 8 9
25 23 21 21 20 18 16 15 14 12 8 6 7 8 8 7 10 4 6 15 12 11 10 5 2 2 3 2 1 1 3 5 4 6 5 4 7 5 7 5 7 6 6 5 6
24 22 21 21 21 19 18 16 14 12 9 6 7 8 8 5 7 5 4 14 13 12 10 5 1 1 3 1 2 2 5 8 9 10 6 5 4 3 4 13 11 9 5 5 6
22 21 20 20 22 20 19 18 15 11 9 7 9 9 13 18 8 7 6 11 14 12 10 4 5 3 2 4 1 3 5 7 9 8 6 6 5 9 11 15 13 9 5 4 5
25 23 21 21 21 20 19 18 15 12 10 9 9 9 11 15 17 14 6 9 14 11 10 6 6 5 2 2 4 3 3 3 4 5 3 6 8 7 12 16 14 12 8 4 2
29 25 22 22 21 20 19 17 15 13 10 10 9 8 8 12 19 19 13 11 15 11 11 8 5 2 1 3 4 4 2 3 6 6 3 4 5 6 15 16 17 16 11 7 4
33 28 25 23 22 22 20 16 14 11 10 9 8 4 14 14 13 18 14 12 13 13 8 6 3 3 3 4 4 3 3 4 4 3 3 3 10 7 15 17 23 20 15 10 8
35 32 27 25 24 24 22 17 8 6 19 14 12 9 1 14 13 13 18 17 10 11 5 4 3 6 8 8 6 2 5 6 4 4 5 7 7 9 19 11 20 22 20 15 12
39 34 29 28 26 26 25 22 16 6 7 31 15 26 8 5 3 16 18 16 9 5 5 4 6 8 6 4 6 6 3 6 5 0 2 6 9 12 12 18 28 32 25 22 19
43 36 31 29 25 28 33 31 16 9 3 6 30 27 22 20 12 12 23 19 7 7 8 7 6 10 7 4 6 4 5 4 6 4 2 3 8 7 5 13 25 30 30 25 23
41 34 32 28 27 31 38 27 14 9 3 6 8 15 19 9 8 12 22 20 3 10 7 6 11 6 5 6 6 3 5 3 2 2 3 2 5 6 5 6 10 27 29 28 25
45 39 34 37 27 39 36 27 13 7 1 4 6 5 14 14 9 19 22 17 8 7 7 7 4 7 6 13 7 8 6 4 1 2 2 1 1 6 1 6 7 17 33 31 29
53 45 38 40 29 31 22 27 13 4 8 4 7 7 7 13 4 8 18 16 9 4 2 9 4 5 7 2 5 4 3 5 4 3 2 6 7 5 4 7 4 12 31 35 32
52 47 43 42 36 24 34 30 4 6 3 6 6 6 7 8 4 6 8 7 7 6 5 2 3 2 5 4 1 3 5 2 2 1 5 3 3 10 6 7 10 21 31 37 34
46 43 44 44 28 35 39 4 6 9 8 3 5 7 8 6 5 6 8 8 4 4 4 7 4 8 5 7 6 6 6 4 5 3 3 2 5 5 4 9 16 26 36 37 36
42 43 46 44 36 37 31 13 12 6 8 9 5 6 5 5 7 4 7 8 11 8 7 6 5 1 1 3 9 4 4 5 2 1 1 4 7 9 2 5 8 20 29 38 39
46 43 44 47 35 37 15 14 8 5 10 6 8 6 10 9 6 10 8 6 6 11 6 5 3 1 3 3 3 5 5 3 1 4 4 4 5 5 3 4 5 9 27 36 40
41 19 35 49 26 18 17 12 5 10 12 7 8 6 6 8 9 6 9 6 13 9 17 5 3 1 2 6 8 3 3 2 3 4 4 1 5 5 5 7 9 14 30 38 42
30 6 37 48 9 14 8 9 7 7 5 4 4 4 8 9 7 8 11 6 14 14 11 9 5 4 8 2 5 4 7 7 4 4 2 3 5 3 4 5 12 18 21 32 40
22 8 43 43 12 15 5 8 5 6 6 5 4 3 4 7 5 7 7 3 3 11 12 9 4 2 1 2 1 5 5 5 4 2 5 4 5 2 4 4 7 12 17 20 31
15 6 20 30 20 16 17 22 11 8 5 6 5 4 4 4 2 7 7 1 1 4 10 21 3 9 7 4 4 5 7 8 6 4 4 6 6 6 5 6 7 10 16 20 26
10 7 15 18 21 17 20 20 19 8 5 11 3 5 6 3 5 5 3 2 3 3 3 6 8 5 5 4 4 5 6 9 9 10 7 10 9 13 7 8 13 15 15 19 24
15 12 21 15 27 17 22 19 22 17 10 7 8 9 6 6 7 8 7 5 5 1 4 1 2 6 4 4 7 4 6 8 9 6 7 7 11 6 15 11 8 12 15 20 24
24 22 28 24 20 13 24 18 25 10 3 14 8 6 5 7 3 8 17 12 9 9 6 7 6 3 4 3 2 4 7 8 6 6 8 8 14 4 4 8 12 11 14 20 27
Wind_Direction
246 243 246 244 251 268 266 266 267 265 263 270 269 254 266 273 269 259 236 172 161 147 151 140 132 140 72 37 11 329 65 302 294 16 246 352 108 71 87 71 46 22 152 137 173
247 244 243 243 247 258 259 260 261 262 265 268 268 249 268 283 279 251 196 189 171 174 164 141 98 98 72 318 290 95 109 228 285 125 127 23 42 355 130 18 92 96 119 140 171
246 245 241 243 244 250 249 253 252 256 262 269 262 252 262 289 297 248 208 195 180 183 181 180 299 238 215 223 213 175 190 215 267 172 161 184 297 277 128 289 213 181 165 173 195
249 245 241 238 239 245 244 246 244 249 249 269 264 246 260 263 223 148 200 192 182 190 197 214 234 197 206 202 227 162 241 196 243 223 208 224 244 278 221 241 245 218 204 208 222
246 244 241 238 235 235 240 232 239 242 241 245 258 244 255 248 243 320 196 191 187 195 199 195 331 239 197 217 131 203 283 301 277 233 265 250 258 244 252 223 194 218 221 236 251
245 237 238 236 236 235 230 227 230 233 237 237 241 242 236 250 229 254 223 196 197 200 200 205 211 352 125 121 161 245 269 282 283 258 249 214 265 247 243 207 195 212 231 276 281
237 237 237 235 234 231 225 223 224 226 231 230 231 232 236 229 197 223 207 208 203 205 202 211 210 256 337 326 337 272 302 317 259 243 220 192 294 240 250 176 187 184 206 272 294
237 238 238 236 232 228 223 218 218 220 222 224 224 231 248 233 230 223 219 213 197 199 211 209 216 253 245 286 352 325 58 336 286 165 185 145 269 267 205 185 185 178 193 223 266
236 237 238 237 231 225 219 212 210 217 216 213 214 221 249 221 226 223 237 224 188 196 213 213 205 186 165 74 357 5 240 217 310 195 126 156 261 277 186 198 183 184 185 179 153
233 233 233 231 228 218 213 203 203 209 206 205 202 245 246 223 215 216 218 215 190 191 190 200 167 94 55 87 236 247 291 256 239 240 189 206 257 282 202 202 190 185 183 179 162
228 230 229 224 220 211 200 181 172 202 201 196 206 199 7 207 213 208 214 187 183 171 165 186 125 197 213 204 219 232 250 251 250 257 182 236 259 249 232 216 189 188 185 179 167
222 224 221 218 212 205 189 186 186 168 211 223 224 218 199 158 255 210 201 179 174 180 153 66 212 220 215 209 214 218 246 270 275 300 162 283 259 260 217 220 202 191 187 182 170
216 218 213 210 196 198 196 193 175 193 217 227 225 221 226 234 234 211 190 192 161 167 181 169 219 205 187 254 208 228 212 236 240 10 285 305 283 260 262 212 204 197 193 186 183
212 208 204 190 192 198 202 176 166 183 60 260 204 230 216 191 222 207 198 188 173 188 167 207 235 210 191 218 164 254 209 233 253 112 236 60 283 298 267 218 167 186 191 188 182
204 203 205 192 195 198 202 163 150 147 291 223 179 203 198 174 162 210 194 190 174 186 139 228 210 205 190 228 174 227 189 213 237 106 16 222 326 272 139 238 222 191 192 189 188
212 205 204 191 201 207 177 168 148 78 231 218 157 167 107 201 187 156 188 200 195 199 196 208 204 161 205 109 169 133 127 43 55 76 315 215 178 264 202 215 183 189 192 191 189
208 203 202 196 198 175 167 162 96 185 235 196 183 158 162 172 200 178 157 166 168 150 198 187 228 193 162 115 68 114 85 351 357 348 231 145 149 257 255 230 193 189 193 193 192
196 195 193 194 175 167 171 119 173 178 204 135 138 120 173 144 222 182 144 181 234 145 126 167 223 176 194 178 180 188 156 169 211 201 274 165 235 251 253 295 222 194 191 193 195
193 185 186 183 171 178 172 196 198 174 184 145 63 131 195 178 168 151 181 201 196 175 167 164 257 131 149 157 149 186 176 183 59 153 58 248 288 309 280 23 166 175 189 197 199
183 183 188 169 172 175 186 202 178 211 136 143 158 166 183 186 154 176 185 205 206 184 187 196 162 240 164 133 59 146 160 111 33 222 228 274 272 244 270 237 170 182 191 201 204
181 169 188 171 172 178 199 194 201 188 149 147 176 156 181 174 172 188 203 242 205 197 191 172 116 312 153 208 169 127 174 180 143 161 188 261 265 218 230 214 209 209 207 207 208
165 168 178 174 164 192 196 177 201 149 159 140 129 129 162 168 160 184 201 226 193 180 178 193 154 175 209 256 198 184 180 159 152 217 223 155 271 267 268 255 222 231 224 219 219
158 122 175 174 180 186 160 211 210 147 163 152 149 166 156 157 164 191 183 227 184 169 177 170 192 134 360 349 312 202 195 165 133 106 200 158 256 329 321 334 221 227 230 233 228
141 142 157 191 224 172 175 193 200 171 160 150 149 132 127 142 196 191 184 146 192 153 182 162 157 205 210 198 141 197 189 190 168 193 198 226 273 272 272 278 275 250 233 227 225
150 166 182 180 207 180 181 182 190 173 172 162 90 175 156 139 140 165 133 113 12 137 111 134 192 179 230 244 191 213 184 177 197 209 184 242 211 253 210 219 245 261 247 228 220
152 158 177 171 178 180 184 194 191 188 154 190 144 184 159 149 178 192 143 181 188 205 146 243 181 167 240 210 208 225 227 191 216 232 249 254 262 229 237 248 234 235 236 231 222
167 164 156 165 178 182 193 177 199 168 204 176 142 123 133 213 264 240 182 191 172 152 172 154 137 122 237 192 110 301 219 218 208 205 206 214 248 179 220 224 228 225 218 224 219
Height
1534 1535 1535 1536 1538 1538 1538 1537 1536 1536 1535 1536 1535 1535 1536 1535 1535 1534 1533 1534 1534 1534 1535 1535 1535 1536 1536 1537 1538 1539 1549 1554 1543 1541 1538 1534 1534 1535 1535 1535 1536 1536 1536 1537 1539
1530 1531 1533 1534 1535 1535 1536 1534 1535 1535 1534 1534 1533 1534 1534 1534 1533 1531 1533 1532 1533 1534 1535 1535 1536 1536 1537 1538 1539 1539 1551 1544 1538 1538 1538 1536 1535 1534 1535 1535 1536 1536 1537 1537 1539
1526 1528 1529 1530 1531 1532 1532 1532 1533 1533 1532 1533 1532 1533 1533 1533 1532 1529 1530 1531 1532 1534 1535 1535 1536 1537 1538 1538 1538 1539 1546 1539 1536 1536 1536 1536 1535 1534 1534 1535 1535 1535 1536 1536 1537
1522 1523 1525 1527 1527 1528 1529 1530 1530 1531 1531 1531 1531 1532 1532 1532 1534 1527 1527 1529 1531 1533 1535 1535 1536 1537 1537 1537 1536 1539 1536 1536 1536 1535 1535 1535 1534 1534 1533 1533 1534 1534 1535 1535 1535
1517 1518 1520 1522 1523 1525 1525 1526 1527 1528 1529 1530 1530 1531 1532 1531 1527 1527 1526 1528 1529 1532 1533 1534 1535 1535 1537 1536 1535 1536 1534 1534 1534 1533 1533 1533 1533 1532 1531 1531 1532 1533 1533 1533 1533
1511 1513 1515 1517 1519 1521 1522 1523 1525 1527 1527 1528 1528 1529 1531 1530 1525 1526 1526 1527 1528 1531 1532 1533 1535 1535 1535 1535 1536 1534 1533 1532 1531 1531 1532 1532 1532 1531 1527 1529 1531 1531 1531 1531 1530
1507 1509 1511 1513 1516 1517 1519 1521 1523 1524 1525 1526 1526 1527 1527 1524 1523 1525 1525 1526 1527 1529 1530 1531 1533 1534 1534 1534 1534 1534 1535 1531 1527 1527 1529 1530 1533 1528 1525 1527 1528 1529 1529 1529 1528
1502 1504 1507 1509 1511 1514 1516 1518 1520 1521 1523 1524 1526 1526 1522 1521 1521 1522 1523 1525 1525 1527 1529 1530 1531 1532 1533 1534 1533 1535 1536 1541 1526 1525 1527 1530 1538 1522 1523 1524 1526 1527 1528 1528 1527
1496 1498 1501 1503 1506 1509 1512 1514 1517 1519 1522 1523 1525 1525 1519 1516 1517 1519 1522 1523 1523 1525 1527 1529 1530 1531 1533 1537 1543 1540 1545 1541 1532 1526 1527 1531 1532 1521 1521 1523 1524 1526 1527 1527 1526
1490 1493 1496 1499 1502 1504 1509 1512 1515 1519 1521 1522 1522 1524 1514 1511 1514 1517 1519 1521 1522 1524 1527 1528 1529 1531 1536 1542 1555 1543 1542 1537 1535 1527 1527 1530 1529 1523 1520 1520 1521 1523 1525 1525 1525
1483 1487 1491 1493 1497 1500 1506 1511 1518 1519 1515 1510 1510 1508 1508 1509 1511 1513 1516 1519 1521 1523 1526 1526 1532 1536 1532 1534 1533 1535 1538 1538 1532 1523 1526 1527 1527 1521 1518 1519 1520 1521 1523 1524 1524
1474 1480 1484 1487 1491 1496 1501 1503 1504 1505 1507 1506 1507 1508 1507 1509 1510 1509 1513 1517 1518 1521 1522 1528 1533 1524 1525 1529 1532 1533 1534 1536 1527 1524 1527 1525 1524 1515 1513 1512 1512 1515 1519 1520 1521
1464 1472 1477 1481 1486 1490 1493 1498 1501 1502 1504 1500 1499 1501 1504 1507 1507 1506 1508 1512 1513 1519 1521 1526 1522 1519 1525 1527 1531 1529 1535 1533 1531 1523 1525 1527 1523 1514 1505 1505 1506 1512 1514 1518 1517
1453 1459 1469 1475 1485 1484 1486 1498 1499 1503 1510 1499 1493 1492 1497 1502 1503 1503 1505 1509 1511 1517 1518 1521 1516 1518 1521 1524 1525 1531 1524 1525 1526 1532 1542 1527 1542 1515 1506 1504 1503 1507 1513 1515 1517
1442 1453 1459 1466 1469 1473 1479 1494 1498 1501 1518 1487 1488 1487 1488 1495 1496 1498 1501 1505 1509 1510 1515 1518 1513 1518 1519 1517 1519 1525 1520 1523 1524 1531 1533 1532 1542 1513 1506 1507 1504 1505 1508 1512 1515
1435 1444 1452 1460 1464 1469 1482 1492 1497 1508 1515 1484 1481 1484 1487 1491 1493 1495 1498 1503 1504 1507 1508 1510 1509 1510 1511 1512 1514 1516 1522 1529 1532 1539 1549 1529 1534 1510 1509 1501 1499 1502 1505 1508 1513
1423 1434 1443 1451 1457 1469 1478 1487 1503 1502 1480 1481 1480 1480 1484 1489 1492 1492 1496 1501 1506 1517 1517 1509 1509 1507 1508 1514 1515 1517 1527 1545 1547 1551 1544 1523 1533 1503 1491 1491 1488 1492 1498 1504 1511
1418 1424 1434 1444 1456 1467 1473 1481 1494 1478 1476 1468 1472 1479 1486 1485 1491 1491 1494 1500 1498 1500 1513 1519 1522 1508 1504 1507 1514 1520 1522 1539 1542 1544 1532 1521 1524 1497 1486 1484 1486 1489 1494 1501 1507
1416 1421 1429 1439 1451 1460 1468 1470 1457 1464 1462 1467 1473 1482 1485 1483 1486 1489 1494 1495 1491 1493 1505 1515 1513 1501 1500 1502 1506 1517 1524 1517 1529 1532 1535 1519 1506 1489 1485 1485 1486 1489 1493 1497 1501
1407 1415 1422 1433 1445 1454 1461 1451 1452 1450 1452 1459 1472 1475 1485 1484 1486 1489 1493 1486 1487 1486 1489 1496 1509 1502 1502 1501 1504 1506 1509 1524 1531 1534 1536 1521 1516 1503 1489 1486 1488 1490 1490 1493 1497
1399 1405 1418 1431 1442 1449 1440 1445 1445 1443 1446 1455 1463 1472 1473 1478 1481 1486 1486 1478 1478 1481 1486 1492 1498 1506 1501 1503 1503 1510 1512 1514 1520 1527 1529 1529 1511 1488 1486 1484 1485 1485 1487 1487 1490
1390 1399 1410 1424 1438 1436 1441 1438 1437 1439 1444 1448 1450 1455 1464 1470 1477 1481 1480 1474 1470 1475 1487 1486 1498 1511 1501 1494 1495 1496 1501 1508 1524 1519 1525 1523 1510 1481 1482 1481 1482 1481 1482 1484 1487
1385 1397 1412 1419 1420 1427 1434 1435 1435 1436 1440 1445 1448 1449 1453 1464 1472 1471 1472 1467 1468 1470 1475 1481 1496 1507 1501 1500 1496 1498 1496 1498 1505 1511 1516 1518 1504 1480 1480 1479 1480 1481 1482 1482 1485
1377 1388 1405 1416 1419 1418 1425 1430 1434 1434 1437 1441 1443 1447 1452 1458 1458 1468 1467 1466 1467 1468 1469 1472 1486 1485 1489 1486 1488 1494 1491 1493 1497 1508 1504 1508 1494 1483 1482 1481 1479 1478 1479 1479 1480
1366 1376 1378 1393 1410 1412 1419 1423 1427 1431 1433 1436 1443 1447 1450 1457 1460 1463 1466 1468 1468 1468 1469 1473 1484 1484 1480 1479 1482 1482 1483 1488 1493 1489 1498 1482 1494 1476 1479 1478 1476 1475 1476 1476 1476
1356 1366 1379 1383 1406 1412 1413 1415 1418 1422 1426 1434 1440 1444 1447 1454 1453 1460 1461 1465 1465 1468 1469 1471 1478 1479 1480 1476 1480 1480 1480 1482 1484 1482 1488 1484 1484 1472 1471 1472 1473 1472 1472 1472 1474
1351 1358 1370 1385 1402 1407 1397 1404 1411 1419 1425 1427 1432 1439 1446 1448 1448 1448 1450 1453 1454 1461 1468 1471 1476 1482 1486 1477 1481 1489 1479 1476 1475 1474 1472 1485 1468 1468 1469 1469 1470 1469 1468 1468 1470